Tracking 19817 objects as of 17-Aug-2019
HD Live streaming from Space Station
objects crossing your sky now

COSMOS 2251 DEB

Track COSMOS 2251 DEB now!
10-day predictions


NORAD ID: 37133
Int'l Code: 1993-036BHF
Perigee: 713.7 km
Apogee: 1,161.0 km
Inclination: 74.0 °
Period: 103.6 minutes
Semi major axis: 7308 km
RCS: 0.0013 m2 (small)
Launch date: June 16, 1993
Source: Commonwealth of Independent States (former USSR) (CIS)
Launch site: PLESETSK MISSILE AND SPACE COMPLEX (PKMTR)

Note: This is SATELLITE DEBRIS
aabbcc
Your satellite tracking list
Your tracking list is empty




NASA's NSSDC Master Catalog

Two Line Element Set (TLE):
1 37133U 93036BHF 19227.63075995  .00002779  00000-0  15706-2 0  9999
2 37133  74.0139  91.9411 0306069  56.8383 306.1708 13.89545601470700
Source of the keplerian elements: AFSPC